This is the latest recevied weather packets stored in our database for station/object LRTR. If no packets are shown the sender has not sent any weather packets the latest 10 day(s).
| Time | Temp. | Humidity | Pressure | Rain* | Wind** | Luminosity | Snow |
|---|---|---|---|---|---|---|---|
| 1777842185 | 8.89° C | 62% | 1019 hPa | - | - | - | - |
| 1777841292 | 8.89° C | 66% | 1019 hPa | - | - | - | - |
| 1777840459 | 8.89° C | 66% | 1019 hPa | - | - | - | - |
| 1777839485 | 11.11° C | 54% | 1019 hPa | - | - | - | - |
| 1777838594 | 11.11° C | 54% | 1019 hPa | - | - | - | - |
| 1777837710 | 10° C | 58% | 1019 hPa | - | - | - | - |
| 1777836860 | 10° C | 58% | 1019 hPa | - | - | - | - |
| 1777835886 | 12.22° C | 51% | 1019 hPa | - | - | - | - |
| 1777834986 | 12.22° C | 51% | 1019 hPa | - | - | - | - |
| 1777834159 | 13.89° C | 48% | 1019 hPa | - | - | - | - |
| 1777833185 | 13.89° C | 48% | 1019 hPa | - | - | - | - |
| 1777832285 | 13.89° C | 48% | 1018 hPa | - | - | - | - |
| 1777831385 | 13.89° C | 48% | 1018 hPa | - | - | - | - |
| 1777830505 | 16.11° C | 42% | 1018 hPa | - | - | - | - |
| 1777829610 | 16.11° C | 42% | 1018 hPa | - | - | - | - |
| 1777828685 | 17.22° C | 39% | 1018 hPa | - | - | - | - |
| 1777827786 | 17.22° C | 39% | 1018 hPa | - | - | - | - |
| 1777826885 | 18.89° C | 32% | 1018 hPa | - | - | - | - |
| 1777825985 | 18.89° C | 32% | 1018 hPa | - | - | - | - |
| 1777825085 | 18.89° C | 32% | 1018 hPa | - | - | - | - |
| 1777824205 | 18.89° C | 32% | 1018 hPa | - | - | - | - |
| 1777823327 | 18.89° C | 30% | 1018 hPa | - | - | - | - |
| 1777822385 | 18.89° C | 30% | 1018 hPa | - | - | - | - |
| 1777821485 | 20° C | 28% | 1019 hPa | - | - | - | - |
| 1777820585 | 20° C | 28% | 1019 hPa | - | - | - | - |
* Rain since midnight (hover to see other rain measurements)
** Current wind speed in m/s (hover to see current wind gust speed)